Location: San Pelegr�n
(42.1868°N, 0.0079°E)
Time: 14:59:24
(UTC+00:00)

Cosmos 2297 Rocket - Pass Details

Date: 24 January 2020
Orbit: 838 x 845 km, 71.0° (Epoch: 22 February)

Event Time Altitude Azimuth Distance (km) Brightness Sun altitude
Rises 17:35:46 0° 196° (SSW) 3,377 5.9 -6.4°
Reaches altitude 10° 17:38:12 10° 194° (SSW) 2,448 5.1 -6.8°
Maximum altitude 17:43:48 71° 111° (ESE) 888 2.2 -7.8°
Drops below altitude 10° 17:49:26 10° 28° (NNE) 2,469 4.2 -8.7°
Sets 17:51:53 0° 27° (NNE) 3,409 4.9 -9.2°
Enters shadow 17:51:55 - 27° (NNE) 3,419 4.9 -9.2°
